Date String (YYYY-MM-DD hh:mm:ss) UTC,Instrument flags,Ambient pressure (hPa),Sample flow (lpm),Bypass flow (lpm),Sample temperature (°C),Ambient temperature (°C),ASC tube jacket temperature (°C),LED temperature (°C),Box temperature (°C),Sample RH (%),Span deviation,Mass concentration (μg/m³),Mass concentration (μg/m³),Mass concentration (μg/m³)
DateTimeUTC,F1_M11,P_M11,Q1_M11,Q2_M11,T1_M11,T2_M11,T3_M11,T4_M11,T5_M11,U1_M11,ZSPAN_M11,X0_M11,X2_M11,X1_M11
2022-01-04 00:00:00,,0822.4,5.00,0.00,24.1,23.6,00.0,33.1,25.9,07.6,0000.0,0008.18,0004.09,0003.81
2022-01-04 00:01:00,,0822.4,4.99,0.00,24.2,23.6,00.0,33.1,25.9,07.9,0000.0,0007.98,0004.01,0003.73
2022-01-04 00:02:00,,0822.4,5.01,0.00,24.2,23.6,00.0,33.1,25.9,08.2,0000.0,0006.94,0003.89,0003.64
2022-01-04 00:03:00,,0822.4,5.00,0.00,24.2,23.6,00.0,33.1,26.0,08.0,0000.0,0006.45,0003.74,0003.49
2022-01-04 00:04:00,,0822.4,5.00,0.00,24.2,23.6,00.0,33.1,26.0,07.8,0000.0,0006.18,0003.58,0003.36
2022-01-04 00:05:00,,0822.4,4.99,0.00,24.2,23.6,00.0,33.2,26.0,07.8,0000.0,0006.33,0003.45,0003.25
2022-01-04 00:06:00,,0822.4,5.01,0.00,24.2,23.6,00.0,33.2,26.0,07.7,0000.0,0006.04,0003.34,0003.17
2022-01-04 00:07:00,,0822.3,4.99,0.00,24.2,23.6,00.0,33.2,25.9,07.5,0000.0,0005.47,0003.25,0003.05
2022-01-04 00:08:00,,0822.3,5.01,0.00,24.2,23.6,00.0,33.2,25.9,07.6,0000.0,0004.91,0003.16,0002.90
2022-01-04 00:09:00,,0822.4,5.00,0.00,24.2,23.6,00.0,33.2,26.0,07.6,0000.0,0004.75,0003.02,0002.72
2022-01-04 00:10:00,,0822.4,5.00,0.00,24.2,23.6,00.0,33.2,26.0,07.8,0000.0,0004.41,0002.82,0002.55
2022-01-04 00:11:00,,0822.4,4.99,0.00,24.2,23.6,00.0,33.2,26.0,08.4,0000.0,0004.20,0002.66,0002.40
2022-01-04 00:12:00,,0822.4,5.01,0.00,24.2,23.6,00.0,33.2,26.0,08.5,0000.0,0004.22,0002.76,0002.49
2022-01-04 00:13:00,,0822.4,5.01,0.00,24.2,23.6,00.0,33.2,26.0,08.5,0000.0,0004.57,0002.98,0002.64
2022-01-04 00:14:00,,0822.4,4.99,0.00,24.3,23.7,00.0,33.2,26.0,08.3,0000.0,0004.61,0003.10,0002.79
2022-01-04 00:15:00,,0822.4,5.00,0.00,24.3,23.7,00.0,33.2,26.1,08.1,0000.0,0004.67,0003.15,0002.84
2022-01-04 00:16:00,,0822.4,4.99,0.00,24.3,23.7,00.0,33.2,26.1,07.9,0000.0,0004.08,0003.19,0002.89
2022-01-04 00:17:00,,0822.4,5.01,0.00,24.3,23.7,00.0,33.2,26.1,07.7,0000.0,0004.09,0003.18,0002.85
2022-01-04 00:18:00,,0822.4,4.99,0.00,24.3,23.7,00.0,33.2,26.1,07.7,0000.0,0004.11,0003.14,0002.77
2022-01-04 00:19:00,,0822.4,5.01,0.00,24.3,23.7,00.0,33.2,26.1,08.5,0000.0,0004.38,0003.26,0002.97
2022-01-04 00:20:00,,0822.3,4.99,0.00,24.3,23.7,00.0,33.2,26.1,07.9,0000.0,0004.64,0003.40,0003.18
2022-01-04 00:21:00,,0822.3,5.01,0.00,24.3,23.7,00.0,33.3,26.1,07.8,0000.0,0004.90,0003.49,0003.25
2022-01-04 00:22:00,,0822.4,4.99,0.00,24.3,23.7,00.0,33.3,26.1,07.9,0000.0,0005.50,0003.61,0003.36
2022-01-04 00:23:00,,0822.3,4.99,0.00,24.3,23.7,00.0,33.3,26.1,08.9,0000.0,0006.25,0003.95,0003.66
2022-01-04 00:24:00,,0822.3,5.01,0.00,24.3,23.7,00.0,33.3,26.1,08.6,0000.0,0006.55,0004.18,0003.92
2022-01-04 00:25:00,,0822.3,4.99,0.00,24.3,23.7,00.0,33.3,26.0,08.8,0000.0,0007.18,0004.54,0004.27
2022-01-04 00:26:00,,0822.3,5.02,0.00,24.3,23.7,00.0,33.3,26.0,08.9,0000.0,0007.85,0004.96,0004.68
2022-01-04 00:27:00,,0822.3,4.99,0.00,24.3,23.7,00.0,33.3,26.0,08.3,0000.0,0008.19,0005.29,0005.01
2022-01-04 00:28:00,,0822.3,5.01,0.00,24.3,23.7,00.0,33.3,26.0,08.1,0000.0,0008.61,0005.59,0005.27
2022-01-04 00:29:00,,0822.3,4.98,0.00,24.3,23.7,00.0,33.3,26.0,08.7,0000.0,0009.03,0006.02,0005.68
2022-01-04 00:30:00,,0822.3,5.01,0.00,24.3,23.7,00.0,33.3,26.0,08.4,0000.0,0009.37,0006.35,0005.99
2022-01-04 00:31:00,,0822.2,4.99,0.00,24.3,23.7,00.0,33.3,26.0,08.0,0000.0,0009.81,0006.52,0006.13
2022-01-04 00:32:00,,0822.1,5.00,0.00,24.3,23.6,00.0,33.3,25.9,08.1,0000.0,0010.21,0006.75,0006.35
2022-01-04 00:33:00,,0822.1,5.01,0.00,24.2,23.6,00.0,33.3,25.9,08.4,0000.0,0010.38,0007.04,0006.61
2022-01-04 00:34:00,,0822.1,4.99,0.00,24.2,23.6,00.0,33.3,25.9,08.7,0000.0,0010.77,0007.13,0006.71
2022-01-04 00:35:00,,0822.2,5.00,0.00,24.2,23.6,00.0,33.3,25.9,08.6,0000.0,0010.86,0007.19,0006.78
2022-01-04 00:36:00,,0822.2,5.00,0.00,24.2,23.6,00.0,33.3,26.0,08.6,0000.0,0010.86,0007.19,0006.76
2022-01-04 00:37:00,,0822.2,5.00,0.00,24.3,23.6,00.0,33.3,26.0,08.4,0000.0,0010.67,0007.18,0006.74
2022-01-04 00:38:00,,0822.2,5.00,0.00,24.3,23.6,00.0,33.3,26.1,08.8,0000.0,0010.86,0007.31,0006.84
2022-01-04 00:39:00,,0822.2,4.99,0.00,24.3,23.7,00.0,33.3,26.1,08.8,0000.0,0011.26,0007.55,0007.07
2022-01-04 00:40:00,,0822.2,5.01,0.00,24.3,23.7,00.0,33.3,26.1,08.4,0000.0,0011.37,0007.61,0007.13
2022-01-04 00:41:00,,0822.2,5.00,0.00,24.3,23.7,00.0,33.3,26.0,08.4,0000.0,0011.46,0007.65,0007.16
2022-01-04 00:42:00,,0822.1,4.99,0.00,24.3,23.7,00.0,33.3,26.1,08.1,0000.0,0011.46,0007.76,0007.28
2022-01-04 00:43:00,,0822.1,5.01,0.00,24.3,23.7,00.0,33.3,26.1,07.9,0000.0,0011.55,0007.88,0007.41
2022-01-04 00:44:00,,0822.1,5.00,0.00,24.3,23.7,00.0,33.3,26.1,07.8,0000.0,0011.47,0007.84,0007.39
2022-01-04 00:45:00,,0822.1,4.99,0.00,24.3,23.7,00.0,33.3,26.1,07.9,0000.0,0010.97,0007.67,0007.22
2022-01-04 00:46:00,,0822.2,5.01,0.00,24.3,23.7,00.0,33.3,26.1,07.8,0000.0,0010.70,0007.44,0006.99
2022-01-04 00:47:00,,0822.2,4.99,0.00,24.3,23.7,00.0,33.3,26.1,07.7,0000.0,0010.43,0007.18,0006.75
2022-01-04 00:48:00,,0822.1,5.01,0.00,24.3,23.7,00.0,33.3,26.1,07.6,0000.0,0010.03,0006.86,0006.47
2022-01-04 00:49:00,,0822.0,5.00,0.00,24.3,23.7,00.0,33.3,26.1,07.5,0000.0,0009.62,0006.52,0006.16
2022-01-04 00:50:00,,0822.0,5.00,0.00,24.3,23.7,00.0,33.3,26.1,07.5,0000.0,0008.94,0006.11,0005.79
2022-01-04 00:51:00,,0822.1,4.99,0.00,24.3,23.7,00.0,33.3,26.1,07.6,0000.0,0008.58,0005.81,0005.49
2022-01-04 00:52:00,,0822.1,5.01,0.00,24.4,23.7,00.0,33.3,26.1,07.3,0000.0,0008.17,0005.46,0005.17
2022-01-04 00:53:00,,0822.1,4.99,0.00,24.4,23.7,00.0,33.3,26.1,07.4,0000.0,0007.67,0005.13,0004.82
2022-01-04 00:54:00,,0822.0,5.00,0.00,24.4,23.7,00.0,33.3,26.1,07.3,0000.0,0007.05,0004.78,0004.49
2022-01-04 00:55:00,,0822.0,5.00,0.00,24.3,23.6,00.0,33.3,26.0,07.3,0000.0,0006.41,0004.45,0004.17
2022-01-04 00:56:00,,0822.0,5.00,0.00,24.3,23.6,00.0,33.3,26.0,07.1,0000.0,0005.70,0004.11,0003.88
2022-01-04 00:57:00,,0822.0,5.00,0.00,24.3,23.6,00.0,33.3,26.0,07.1,0000.0,0005.12,0003.82,0003.60
2022-01-04 00:58:00,,0821.9,5.00,0.00,24.3,23.6,00.0,33.3,26.0,06.9,0000.0,0004.66,0003.56,0003.37
2022-01-04 00:59:00,,0821.8,5.00,0.00,24.3,23.6,00.0,33.3,26.0,07.0,0000.0,0004.36,0003.36,0003.15
